contact:dominique.lefevre@mio.osupytheas.fr, maurice.libes@osupytheas.fr, didier.mallarino@osupytheas.fr
Project:EMSO http://www.emso-fr.org/EMSO-France
Depth: 2436.0 m
Title:EMSO Ligure Ouest : Data MII capteur MICROCAT
DateTime_Computer,Latitude,Longitude,Temperature,Conductivity,Pressure,DateTime_Instrument
DateTime_Computer,Latitude,Longitude,degC,S m-1,dbar,DateTime_Instrument
2023-12-05T00:03:00Z,42.805,6.029,13.3043,4.60114,2470.824,2023-12-05T02:05:29Z
2023-12-05T00:06:03Z,42.805,6.029,13.3041,4.60115,2470.81,2023-12-05T02:08:32Z
2023-12-05T00:09:07Z,42.805,6.029,13.3038,4.60113,2470.833,2023-12-05T02:11:35Z
2023-12-05T00:12:10Z,42.805,6.029,13.3043,4.60113,2470.81,2023-12-05T02:14:39Z
2023-12-05T00:15:13Z,42.805,6.029,13.3039,4.60113,2470.81,2023-12-05T02:17:42Z
2023-12-05T00:18:16Z,42.805,6.029,13.3041,4.60114,2470.8,2023-12-05T02:20:45Z
2023-12-05T00:21:19Z,42.805,6.029,13.3040,4.60113,2470.787,2023-12-05T02:23:48Z
2023-12-05T00:24:22Z,42.805,6.029,13.3037,4.60114,2470.81,2023-12-05T02:26:51Z
2023-12-05T00:27:25Z,42.805,6.029,13.3041,4.60113,2470.81,2023-12-05T02:29:54Z
2023-12-05T00:30:28Z,42.805,6.029,13.3039,4.60114,2470.81,2023-12-05T02:32:57Z
2023-12-05T00:33:31Z,42.805,6.029,13.3038,4.60113,2470.8,2023-12-05T02:36:00Z
2023-12-05T00:36:34Z,42.805,6.029,13.3044,4.60114,2470.81,2023-12-05T02:39:03Z
2023-12-05T00:39:37Z,42.805,6.029,13.3040,4.60113,2470.81,2023-12-05T02:42:06Z
2023-12-05T00:42:40Z,42.805,6.029,13.3041,4.60114,2470.81,2023-12-05T02:45:09Z
2023-12-05T00:45:44Z,42.805,6.029,13.3039,4.60113,2470.787,2023-12-05T02:48:12Z
2023-12-05T00:48:47Z,42.805,6.029,13.3043,4.60114,2470.8,2023-12-05T02:51:15Z
2023-12-05T00:51:50Z,42.805,6.029,13.3039,4.60113,2470.787,2023-12-05T02:54:19Z
2023-12-05T00:54:53Z,42.805,6.029,13.3045,4.60114,2470.787,2023-12-05T02:57:22Z
2023-12-05T00:57:56Z,42.805,6.029,13.3040,4.60114,2470.81,2023-12-05T03:00:25Z
2023-12-05T01:00:59Z,42.805,6.029,13.3043,4.60114,2470.787,2023-12-05T03:03:28Z
2023-12-05T01:04:02Z,42.805,6.029,13.3042,4.60116,2470.787,2023-12-05T03:06:31Z
2023-12-05T01:07:05Z,42.805,6.029,13.3042,4.60114,2470.824,2023-12-05T03:09:34Z
2023-12-05T01:10:08Z,42.805,6.029,13.3041,4.60116,2470.824,2023-12-05T03:12:37Z
2023-12-05T01:13:11Z,42.805,6.029,13.3039,4.60114,2470.81,2023-12-05T03:15:40Z
2023-12-05T01:16:14Z,42.805,6.029,13.3041,4.60115,2470.787,2023-12-05T03:18:43Z
2023-12-05T01:19:17Z,42.805,6.029,13.3040,4.60114,2470.81,2023-12-05T03:21:46Z
2023-12-05T01:22:20Z,42.805,6.029,13.3043,4.60114,2470.8,2023-12-05T03:24:49Z
2023-12-05T01:25:24Z,42.805,6.029,13.3041,4.60114,2470.787,2023-12-05T03:27:52Z
2023-12-05T01:28:27Z,42.805,6.029,13.3042,4.60113,2470.787,2023-12-05T03:30:55Z
2023-12-05T01:31:30Z,42.805,6.029,13.3040,4.60114,2470.81,2023-12-05T03:33:59Z
2023-12-05T01:34:33Z,42.805,6.029,13.3043,4.60115,2470.81,2023-12-05T03:37:02Z
2023-12-05T01:37:36Z,42.805,6.029,13.3041,4.60113,2470.787,2023-12-05T03:40:05Z
2023-12-05T01:40:39Z,42.805,6.029,13.3039,4.60113,2470.787,2023-12-05T03:43:08Z
2023-12-05T01:43:42Z,42.805,6.029,13.3039,4.60114,2470.81,2023-12-05T03:46:11Z
2023-12-05T01:46:45Z,42.805,6.029,13.3039,4.60121,2470.8,2023-12-05T03:49:14Z
2023-12-05T01:49:48Z,42.805,6.029,13.3037,4.60113,2470.787,2023-12-05T03:52:17Z
2023-12-05T01:52:51Z,42.805,6.029,13.3043,4.60114,2470.787,2023-12-05T03:55:20Z
2023-12-05T01:55:54Z,42.805,6.029,13.3041,4.60115,2470.787,2023-12-05T03:58:23Z
2023-12-05T01:58:57Z,42.805,6.029,13.3043,4.60116,2470.787,2023-12-05T04:01:26Z
2023-12-05T02:02:00Z,42.805,6.029,13.3041,4.60115,2470.833,2023-12-05T04:04:29Z
2023-12-05T02:05:04Z,42.805,6.029,13.3039,4.60113,2470.81,2023-12-05T04:07:32Z
2023-12-05T02:08:07Z,42.805,6.029,13.3043,4.60114,2470.787,2023-12-05T04:10:36Z
2023-12-05T02:11:10Z,42.805,6.029,13.3043,4.60114,2470.833,2023-12-05T04:13:39Z
2023-12-05T02:14:13Z,42.805,6.029,13.3043,4.60114,2470.787,2023-12-05T04:16:42Z
2023-12-05T02:17:16Z,42.805,6.029,13.3043,4.60114,2470.824,2023-12-05T04:19:45Z
2023-12-05T02:20:19Z,42.805,6.029,13.3042,4.60114,2470.81,2023-12-05T04:22:48Z
2023-12-05T02:23:22Z,42.805,6.029,13.3038,4.60114,2470.796,2023-12-05T04:25:51Z
2023-12-05T02:26:25Z,42.805,6.029,13.3041,4.60116,2470.787,2023-12-05T04:28:54Z
2023-12-05T02:29:28Z,42.805,6.029,13.3039,4.60115,2470.81,2023-12-05T04:31:57Z
2023-12-05T02:32:31Z,42.805,6.029,13.3042,4.60114,2470.81,2023-12-05T04:35:00Z
2023-12-05T02:35:34Z,42.805,6.029,13.3039,4.60114,2470.81,2023-12-05T04:38:03Z
2023-12-05T02:38:37Z,42.805,6.029,13.3037,4.60122,2470.787,2023-12-05T04:41:06Z
2023-12-05T02:41:40Z,42.805,6.029,13.3043,4.60113,2470.81,2023-12-05T04:44:09Z
2023-12-05T02:44:44Z,42.805,6.029,13.3039,4.60117,2470.787,2023-12-05T04:47:12Z
2023-12-05T02:47:47Z,42.805,6.029,13.3037,4.60114,2470.777,2023-12-05T04:50:16Z
2023-12-05T02:50:50Z,42.805,6.029,13.3043,4.60114,2470.824,2023-12-05T04:53:19Z
2023-12-05T02:53:53Z,42.805,6.029,13.3041,4.60114,2470.787,2023-12-05T04:56:22Z
2023-12-05T02:56:56Z,42.805,6.029,13.3041,4.60116,2470.8,2023-12-05T04:59:25Z
2023-12-05T02:59:59Z,42.805,6.029,13.3044,4.60115,2470.787,2023-12-05T05:02:28Z
2023-12-05T03:03:02Z,42.805,6.029,13.3043,4.60114,2470.787,2023-12-05T05:05:31Z
2023-12-05T03:06:05Z,42.805,6.029,13.3045,4.60114,2470.824,2023-12-05T05:08:34Z
2023-12-05T03:09:08Z,42.805,6.029,13.3040,4.60114,2470.8,2023-12-05T05:11:37Z
2023-12-05T03:12:11Z,42.805,6.029,13.3039,4.60117,2470.796,2023-12-05T05:14:40Z
2023-12-05T03:15:14Z,42.805,6.029,13.3041,4.60114,2470.777,2023-12-05T05:17:43Z
2023-12-05T03:18:17Z,42.805,6.029,13.3040,4.60114,2470.787,2023-12-05T05:20:46Z
2023-12-05T03:21:21Z,42.805,6.029,13.3041,4.60117,2470.777,2023-12-05T05:23:49Z
2023-12-05T03:24:24Z,42.805,6.029,13.3039,4.60116,2470.787,2023-12-05T05:26:52Z
2023-12-05T03:27:27Z,42.805,6.029,13.3043,4.60115,2470.754,2023-12-05T05:29:56Z
2023-12-05T03:30:30Z,42.805,6.029,13.3041,4.60116,2470.8,2023-12-05T05:32:59Z
2023-12-05T03:33:33Z,42.805,6.029,13.3046,4.60113,2470.763,2023-12-05T05:36:02Z
2023-12-05T03:36:36Z,42.805,6.029,13.3040,4.60113,2470.81,2023-12-05T05:39:05Z
2023-12-05T03:39:39Z,42.805,6.029,13.3041,4.60117,2470.8,2023-12-05T05:42:08Z
2023-12-05T03:42:42Z,42.805,6.029,13.3041,4.60115,2470.787,2023-12-05T05:45:11Z
2023-12-05T03:45:45Z,42.805,6.029,13.3043,4.60114,2470.787,2023-12-05T05:48:14Z
2023-12-05T03:48:48Z,42.805,6.029,13.3040,4.60116,2470.8,2023-12-05T05:51:17Z
2023-12-05T03:51:51Z,42.805,6.029,13.3036,4.60114,2470.81,2023-12-05T05:54:20Z
2023-12-05T03:54:54Z,42.805,6.029,13.3039,4.60114,2470.787,2023-12-05T05:57:23Z
2023-12-05T03:57:57Z,42.805,6.029,13.3040,4.60114,2470.787,2023-12-05T06:00:26Z
2023-12-05T04:01:01Z,42.805,6.029,13.3040,4.60115,2470.74,2023-12-05T06:03:29Z
2023-12-05T04:04:04Z,42.805,6.029,13.3043,4.60114,2470.763,2023-12-05T06:06:33Z
2023-12-05T04:07:07Z,42.805,6.029,13.3041,4.60115,2470.81,2023-12-05T06:09:36Z
2023-12-05T04:10:10Z,42.805,6.029,13.3039,4.60116,2470.787,2023-12-05T06:12:39Z
2023-12-05T04:13:13Z,42.805,6.029,13.3043,4.60115,2470.763,2023-12-05T06:15:42Z
2023-12-05T04:16:16Z,42.805,6.029,13.3039,4.60114,2470.763,2023-12-05T06:18:45Z
2023-12-05T04:19:19Z,42.805,6.029,13.3039,4.60117,2470.74,2023-12-05T06:21:48Z
2023-12-05T04:22:22Z,42.805,6.029,13.3041,4.60117,2470.74,2023-12-05T06:24:51Z
2023-12-05T04:25:25Z,42.805,6.029,13.3040,4.60114,2470.763,2023-12-05T06:27:54Z
2023-12-05T04:28:28Z,42.805,6.029,13.3040,4.60115,2470.763,2023-12-05T06:30:57Z
2023-12-05T04:31:31Z,42.805,6.029,13.3037,4.60115,2470.81,2023-12-05T06:34:00Z
2023-12-05T04:34:34Z,42.805,6.029,13.3042,4.60117,2470.763,2023-12-05T06:37:03Z
2023-12-05T04:37:37Z,42.805,6.029,13.3043,4.60116,2470.763,2023-12-05T06:40:06Z
2023-12-05T04:40:41Z,42.805,6.029,13.3042,4.60114,2470.763,2023-12-05T06:43:09Z
2023-12-05T04:43:44Z,42.805,6.029,13.3041,4.60114,2470.787,2023-12-05T06:46:13Z
2023-12-05T04:46:47Z,42.805,6.029,13.3042,4.60115,2470.74,2023-12-05T06:49:16Z
2023-12-05T04:49:50Z,42.805,6.029,13.3036,4.60115,2470.763,2023-12-05T06:52:19Z
2023-12-05T04:52:53Z,42.805,6.029,13.3042,4.60115,2470.787,2023-12-05T06:55:22Z
2023-12-05T04:55:56Z,42.805,6.029,13.3043,4.60114,2470.787,2023-12-05T06:58:25Z
2023-12-05T04:58:59Z,42.805,6.029,13.3041,4.60115,2470.763,2023-12-05T07:01:28Z
2023-12-05T05:02:02Z,42.805,6.029,13.3039,4.60116,2470.717,2023-12-05T07:04:31Z
2023-12-05T05:05:05Z,42.805,6.029,13.3042,4.60115,2470.74,2023-12-05T07:07:34Z
2023-12-05T05:08:08Z,42.805,6.029,13.3040,4.60114,2470.763,2023-12-05T07:10:37Z
2023-12-05T05:11:11Z,42.805,6.029,13.3039,4.60114,2470.777,2023-12-05T07:13:40Z
2023-12-05T05:14:14Z,42.805,6.029,13.3036,4.60114,2470.763,2023-12-05T07:16:43Z
2023-12-05T05:17:18Z,42.805,6.029,13.3041,4.60115,2470.777,2023-12-05T07:19:46Z
2023-12-05T05:20:21Z,42.805,6.029,13.3041,4.60114,2470.763,2023-12-05T07:22:50Z
2023-12-05T05:23:24Z,42.805,6.029,13.3041,4.60114,2470.763,2023-12-05T07:25:53Z
2023-12-05T05:26:27Z,42.805,6.029,13.3040,4.60113,2470.777,2023-12-05T07:28:56Z
2023-12-05T05:29:30Z,42.805,6.029,13.3037,4.60115,2470.763,2023-12-05T07:31:59Z
2023-12-05T05:32:34Z,42.805,6.029,13.3042,4.60116,2470.8,2023-12-05T07:35:03Z
2023-12-05T05:35:37Z,42.805,6.029,13.3042,4.60113,2470.754,2023-12-05T07:38:06Z
2023-12-05T05:38:40Z,42.805,6.029,13.3041,4.60115,2470.763,2023-12-05T07:41:09Z
2023-12-05T05:41:43Z,42.805,6.029,13.3037,4.60113,2470.74,2023-12-05T07:44:12Z
2023-12-05T05:44:46Z,42.805,6.029,13.3040,4.60117,2470.763,2023-12-05T07:47:15Z
2023-12-05T05:47:49Z,42.805,6.029,13.3043,4.60114,2470.74,2023-12-05T07:50:18Z
2023-12-05T05:50:52Z,42.805,6.029,13.3039,4.60113,2470.754,2023-12-05T07:53:21Z
2023-12-05T05:53:56Z,42.805,6.029,13.3040,4.60114,2470.787,2023-12-05T07:56:24Z
2023-12-05T05:56:59Z,42.805,6.029,13.3039,4.60115,2470.763,2023-12-05T07:59:27Z
2023-12-05T06:00:02Z,42.805,6.029,13.3037,4.60112,2470.754,2023-12-05T08:02:31Z
2023-12-05T06:03:05Z,42.805,6.029,13.3040,4.60113,2470.777,2023-12-05T08:05:34Z
2023-12-05T06:06:08Z,42.805,6.029,13.3039,4.60113,2470.763,2023-12-05T08:08:37Z
2023-12-05T06:09:11Z,42.805,6.029,13.3042,4.60113,2470.777,2023-12-05T08:11:40Z
2023-12-05T06:12:14Z,42.805,6.029,13.3035,4.60116,2470.75,2023-12-05T08:14:43Z
2023-12-05T06:15:17Z,42.805,6.029,13.3039,4.60114,2470.717,2023-12-05T08:17:46Z
2023-12-05T06:18:20Z,42.805,6.029,13.3039,4.60112,2470.74,2023-12-05T08:20:49Z
2023-12-05T06:21:23Z,42.805,6.029,13.3043,4.60113,2470.693,2023-12-05T08:23:52Z
2023-12-05T06:24:26Z,42.805,6.029,13.3042,4.60114,2470.74,2023-12-05T08:26:55Z
2023-12-05T06:27:29Z,42.805,6.029,13.3039,4.60115,2470.763,2023-12-05T08:29:58Z
2023-12-05T06:30:32Z,42.805,6.029,13.3037,4.60113,2470.74,2023-12-05T08:33:01Z
2023-12-05T06:33:36Z,42.805,6.029,13.3041,4.60113,2470.754,2023-12-05T08:36:04Z
2023-12-05T06:36:39Z,42.805,6.029,13.3039,4.60114,2470.763,2023-12-05T08:39:08Z
2023-12-05T06:39:42Z,42.805,6.029,13.3041,4.60114,2470.74,2023-12-05T08:42:11Z
2023-12-05T06:42:45Z,42.805,6.029,13.3039,4.60114,2470.763,2023-12-05T08:45:14Z
2023-12-05T06:45:48Z,42.805,6.029,13.3039,4.60114,2470.754,2023-12-05T08:48:17Z
2023-12-05T06:48:51Z,42.805,6.029,13.3039,4.60114,2470.763,2023-12-05T08:51:20Z
2023-12-05T06:51:54Z,42.805,6.029,13.3039,4.60114,2470.74,2023-12-05T08:54:23Z
2023-12-05T06:54:57Z,42.805,6.029,13.3035,4.60114,2470.763,2023-12-05T08:57:26Z
2023-12-05T06:58:00Z,42.805,6.029,13.3042,4.60114,2470.74,2023-12-05T09:00:29Z
2023-12-05T07:01:03Z,42.805,6.029,13.3043,4.60114,2470.763,2023-12-05T09:03:32Z
2023-12-05T07:04:06Z,42.805,6.029,13.3038,4.60114,2470.763,2023-12-05T09:06:35Z
2023-12-05T07:07:09Z,42.805,6.029,13.3042,4.60113,2470.74,2023-12-05T09:09:38Z
2023-12-05T07:10:12Z,42.805,6.029,13.3041,4.60114,2470.754,2023-12-05T09:12:41Z
2023-12-05T07:13:16Z,42.805,6.029,13.3043,4.60114,2470.777,2023-12-05T09:15:44Z
2023-12-05T07:16:19Z,42.805,6.029,13.3043,4.60115,2470.777,2023-12-05T09:18:48Z
2023-12-05T07:19:22Z,42.805,6.029,13.3039,4.60114,2470.74,2023-12-05T09:21:51Z
2023-12-05T07:22:25Z,42.805,6.029,13.3046,4.60118,2470.74,2023-12-05T09:24:54Z
2023-12-05T07:25:28Z,42.805,6.029,13.3041,4.60113,2470.74,2023-12-05T09:27:57Z
2023-12-05T07:28:31Z,42.805,6.029,13.3039,4.60114,2470.763,2023-12-05T09:31:00Z
2023-12-05T07:31:34Z,42.805,6.029,13.3037,4.60114,2470.787,2023-12-05T09:34:03Z
2023-12-05T07:34:37Z,42.805,6.029,13.3043,4.60114,2470.763,2023-12-05T09:37:06Z
2023-12-05T07:37:40Z,42.805,6.029,13.3043,4.60113,2470.74,2023-12-05T09:40:09Z
2023-12-05T07:40:43Z,42.805,6.029,13.3043,4.60113,2470.754,2023-12-05T09:43:12Z
2023-12-05T07:43:46Z,42.805,6.029,13.3037,4.60114,2470.787,2023-12-05T09:46:15Z
2023-12-05T07:46:49Z,42.805,6.029,13.3040,4.60113,2470.763,2023-12-05T09:49:18Z
2023-12-05T07:49:52Z,42.805,6.029,13.3039,4.60115,2470.763,2023-12-05T09:52:21Z
2023-12-05T07:52:55Z,42.805,6.029,13.3035,4.60113,2470.787,2023-12-05T09:55:24Z
2023-12-05T07:55:59Z,42.805,6.029,13.3040,4.60115,2470.763,2023-12-05T09:58:27Z
2023-12-05T07:59:02Z,42.805,6.029,13.3045,4.60114,2470.763,2023-12-05T10:01:31Z
2023-12-05T08:02:05Z,42.805,6.029,13.3038,4.60113,2470.8,2023-12-05T10:04:34Z
2023-12-05T08:05:08Z,42.805,6.029,13.3040,4.60117,2470.8,2023-12-05T10:07:37Z
2023-12-05T08:08:11Z,42.805,6.029,13.3042,4.60113,2470.74,2023-12-05T10:10:40Z
2023-12-05T08:11:14Z,42.805,6.029,13.3042,4.60114,2470.787,2023-12-05T10:13:43Z
2023-12-05T08:14:17Z,42.805,6.029,13.3041,4.60114,2470.8,2023-12-05T10:16:46Z
2023-12-05T08:17:20Z,42.805,6.029,13.3042,4.60114,2470.777,2023-12-05T10:19:49Z
2023-12-05T08:20:23Z,42.805,6.029,13.3039,4.60114,2470.763,2023-12-05T10:22:52Z
2023-12-05T08:23:26Z,42.805,6.029,13.3042,4.60114,2470.763,2023-12-05T10:25:55Z
2023-12-05T08:26:29Z,42.805,6.029,13.3040,4.60114,2470.787,2023-12-05T10:28:58Z
2023-12-05T08:29:32Z,42.805,6.029,13.3040,4.60114,2470.763,2023-12-05T10:32:01Z
2023-12-05T08:32:36Z,42.805,6.029,13.3041,4.60114,2470.81,2023-12-05T10:35:04Z
2023-12-05T08:35:39Z,42.805,6.029,13.3041,4.60115,2470.777,2023-12-05T10:38:08Z
2023-12-05T08:38:42Z,42.805,6.029,13.3040,4.60114,2470.8,2023-12-05T10:41:11Z
2023-12-05T08:41:45Z,42.805,6.029,13.3042,4.60114,2470.8,2023-12-05T10:44:14Z
2023-12-05T08:44:48Z,42.805,6.029,13.3041,4.60114,2470.8,2023-12-05T10:47:17Z
2023-12-05T08:47:51Z,42.805,6.029,13.3041,4.60114,2470.787,2023-12-05T10:50:20Z
2023-12-05T08:50:54Z,42.805,6.029,13.3040,4.60114,2470.8,2023-12-05T10:53:23Z
2023-12-05T08:53:57Z,42.805,6.029,13.3041,4.60116,2470.787,2023-12-05T10:56:26Z
2023-12-05T08:57:00Z,42.805,6.029,13.3041,4.60117,2470.787,2023-12-05T10:59:29Z
2023-12-05T09:00:03Z,42.805,6.029,13.3042,4.60115,2470.787,2023-12-05T11:02:32Z
2023-12-05T09:03:06Z,42.805,6.029,13.3039,4.60114,2470.763,2023-12-05T11:05:35Z
2023-12-05T09:06:09Z,42.805,6.029,13.3039,4.60113,2470.763,2023-12-05T11:08:38Z
2023-12-05T09:09:12Z,42.805,6.029,13.3041,4.60114,2470.787,2023-12-05T11:11:41Z
2023-12-05T09:12:16Z,42.805,6.029,13.3036,4.60114,2470.81,2023-12-05T11:14:44Z
2023-12-05T09:15:19Z,42.805,6.029,13.3039,4.60114,2470.81,2023-12-05T11:17:47Z
2023-12-05T09:18:22Z,42.805,6.029,13.3038,4.60116,2470.8,2023-12-05T11:20:51Z
2023-12-05T09:21:25Z,42.805,6.029,13.3039,4.60114,2470.773,2023-12-05T11:23:54Z
2023-12-05T09:24:28Z,42.805,6.029,13.3039,4.60116,2470.824,2023-12-05T11:26:57Z
2023-12-05T09:27:31Z,42.805,6.029,13.3043,4.60119,2470.787,2023-12-05T11:30:00Z
2023-12-05T09:30:34Z,42.805,6.029,13.3040,4.60114,2470.8,2023-12-05T11:33:03Z
2023-12-05T09:33:37Z,42.805,6.029,13.3042,4.60114,2470.81,2023-12-05T11:36:06Z
2023-12-05T09:36:40Z,42.805,6.029,13.3036,4.60116,2470.824,2023-12-05T11:39:09Z
2023-12-05T09:39:43Z,42.805,6.029,13.3041,4.60114,2470.82,2023-12-05T11:42:12Z
2023-12-05T09:42:46Z,42.805,6.029,13.3039,4.60115,2470.81,2023-12-05T11:45:15Z
2023-12-05T09:45:49Z,42.805,6.029,13.3041,4.60114,2470.824,2023-12-05T11:48:18Z
2023-12-05T09:48:52Z,42.805,6.029,13.3041,4.60114,2470.833,2023-12-05T11:51:21Z
2023-12-05T09:51:56Z,42.805,6.029,13.3040,4.60114,2470.82,2023-12-05T11:54:24Z
2023-12-05T09:54:59Z,42.805,6.029,13.3040,4.60114,2470.81,2023-12-05T11:57:28Z
2023-12-05T09:58:02Z,42.805,6.029,13.3041,4.60114,2470.833,2023-12-05T12:00:31Z
2023-12-05T10:01:05Z,42.805,6.029,13.3041,4.60117,2470.833,2023-12-05T12:03:34Z
2023-12-05T10:04:08Z,42.805,6.029,13.3041,4.60115,2470.847,2023-12-05T12:06:37Z
2023-12-05T10:07:11Z,42.805,6.029,13.3041,4.60116,2470.824,2023-12-05T12:09:40Z
2023-12-05T10:10:14Z,42.805,6.029,13.3038,4.60114,2470.81,2023-12-05T12:12:43Z
2023-12-05T10:13:17Z,42.805,6.029,13.3040,4.60116,2470.857,2023-12-05T12:15:46Z
2023-12-05T10:16:20Z,42.805,6.029,13.3040,4.60119,2470.833,2023-12-05T12:18:49Z
2023-12-05T10:19:23Z,42.805,6.029,13.3043,4.60115,2470.833,2023-12-05T12:21:52Z
2023-12-05T10:22:26Z,42.805,6.029,13.3043,4.60115,2470.847,2023-12-05T12:24:55Z
2023-12-05T10:25:29Z,42.805,6.029,13.3042,4.60115,2470.847,2023-12-05T12:27:58Z
2023-12-05T10:28:32Z,42.805,6.029,13.3041,4.60116,2470.833,2023-12-05T12:31:01Z
2023-12-05T10:31:36Z,42.805,6.029,13.3042,4.60115,2470.833,2023-12-05T12:34:05Z
2023-12-05T10:34:39Z,42.805,6.029,13.3040,4.60116,2470.833,2023-12-05T12:37:08Z
2023-12-05T10:37:42Z,42.805,6.029,13.3046,4.60115,2470.847,2023-12-05T12:40:11Z
2023-12-05T10:40:45Z,42.805,6.029,13.3041,4.60115,2470.857,2023-12-05T12:43:14Z
2023-12-05T10:43:48Z,42.805,6.029,13.3041,4.60117,2470.857,2023-12-05T12:46:17Z
2023-12-05T10:46:51Z,42.805,6.029,13.3044,4.60115,2470.847,2023-12-05T12:49:20Z
2023-12-05T10:49:54Z,42.805,6.029,13.3041,4.60117,2470.857,2023-12-05T12:52:23Z
2023-12-05T10:52:57Z,42.805,6.029,13.3043,4.60116,2470.833,2023-12-05T12:55:26Z
2023-12-05T10:56:00Z,42.805,6.029,13.3040,4.60115,2470.833,2023-12-05T12:58:29Z
2023-12-05T10:59:03Z,42.805,6.029,13.3043,4.60117,2470.833,2023-12-05T13:01:32Z
2023-12-05T11:02:06Z,42.805,6.029,13.3041,4.60115,2470.833,2023-12-05T13:04:35Z
2023-12-05T11:05:09Z,42.805,6.029,13.3041,4.60115,2470.857,2023-12-05T13:07:38Z
2023-12-05T11:08:13Z,42.805,6.029,13.3042,4.60117,2470.833,2023-12-05T13:10:41Z
2023-12-05T11:11:16Z,42.805,6.029,13.3043,4.60115,2470.81,2023-12-05T13:13:45Z
2023-12-05T11:14:19Z,42.805,6.029,13.3041,4.60116,2470.833,2023-12-05T13:16:48Z
2023-12-05T11:17:22Z,42.805,6.029,13.3044,4.60117,2470.871,2023-12-05T13:19:51Z
2023-12-05T11:20:25Z,42.805,6.029,13.3041,4.60115,2470.857,2023-12-05T13:22:54Z
2023-12-05T11:23:28Z,42.805,6.029,13.3039,4.60115,2470.82,2023-12-05T13:25:57Z
2023-12-05T11:26:31Z,42.805,6.029,13.3041,4.60117,2470.833,2023-12-05T13:29:00Z
2023-12-05T11:29:34Z,42.805,6.029,13.3041,4.60114,2470.833,2023-12-05T13:32:03Z
2023-12-05T11:32:37Z,42.805,6.029,13.3043,4.60115,2470.833,2023-12-05T13:35:06Z
2023-12-05T11:35:40Z,42.805,6.029,13.3042,4.60115,2470.857,2023-12-05T13:38:09Z
2023-12-05T11:38:43Z,42.805,6.029,13.3041,4.60119,2470.857,2023-12-05T13:41:12Z
2023-12-05T11:41:46Z,42.805,6.029,13.3041,4.60116,2470.857,2023-12-05T13:44:15Z
2023-12-05T11:44:50Z,42.805,6.029,13.3039,4.60115,2470.88,2023-12-05T13:47:18Z
2023-12-05T11:47:53Z,42.805,6.029,13.3042,4.60116,2470.871,2023-12-05T13:50:22Z
2023-12-05T11:50:56Z,42.805,6.029,13.3039,4.60117,2470.847,2023-12-05T13:53:25Z
2023-12-05T11:53:59Z,42.805,6.029,13.3041,4.60119,2470.857,2023-12-05T13:56:28Z
2023-12-05T11:57:02Z,42.805,6.029,13.3041,4.60116,2470.81,2023-12-05T13:59:31Z
2023-12-05T12:00:05Z,42.805,6.029,13.3041,4.60117,2470.894,2023-12-05T14:02:34Z
2023-12-05T12:03:08Z,42.805,6.029,13.3042,4.60117,2470.857,2023-12-05T14:05:37Z
2023-12-05T12:06:11Z,42.805,6.029,13.3043,4.60114,2470.847,2023-12-05T14:08:40Z
2023-12-05T12:09:14Z,42.805,6.029,13.3043,4.60116,2470.847,2023-12-05T14:11:43Z
2023-12-05T12:12:17Z,42.805,6.029,13.3043,4.60116,2470.857,2023-12-05T14:14:46Z
2023-12-05T12:15:20Z,42.805,6.029,13.3039,4.60117,2470.847,2023-12-05T14:17:49Z
2023-12-05T12:18:23Z,42.805,6.029,13.3041,4.60115,2470.857,2023-12-05T14:20:52Z
2023-12-05T12:21:27Z,42.805,6.029,13.3041,4.60116,2470.833,2023-12-05T14:23:55Z
2023-12-05T12:24:30Z,42.805,6.029,13.3041,4.60116,2470.894,2023-12-05T14:26:59Z
2023-12-05T12:27:33Z,42.805,6.029,13.3042,4.60116,2470.857,2023-12-05T14:30:02Z
2023-12-05T12:30:36Z,42.805,6.029,13.3041,4.60116,2470.88,2023-12-05T14:33:05Z
2023-12-05T12:33:39Z,42.805,6.029,13.3043,4.60115,2470.88,2023-12-05T14:36:08Z
2023-12-05T12:36:42Z,42.805,6.029,13.3043,4.60117,2470.857,2023-12-05T14:39:11Z
2023-12-05T12:39:45Z,42.805,6.029,13.3043,4.60116,2470.833,2023-12-05T14:42:14Z
2023-12-05T12:42:48Z,42.805,6.029,13.3041,4.60116,2470.787,2023-12-05T14:45:17Z
2023-12-05T12:45:51Z,42.805,6.029,13.3041,4.60117,2470.857,2023-12-05T14:48:20Z
2023-12-05T12:48:54Z,42.805,6.029,13.3043,4.60115,2470.857,2023-12-05T14:51:23Z
2023-12-05T12:51:57Z,42.805,6.029,13.3041,4.60116,2470.833,2023-12-05T14:54:26Z
2023-12-05T12:55:00Z,42.805,6.029,13.3041,4.60116,2470.88,2023-12-05T14:57:29Z
2023-12-05T12:58:04Z,42.805,6.029,13.3043,4.60121,2470.857,2023-12-05T15:00:32Z
2023-12-05T13:01:07Z,42.805,6.029,13.3044,4.60117,2470.857,2023-12-05T15:03:36Z
2023-12-05T13:04:10Z,42.805,6.029,13.3042,4.60116,2470.857,2023-12-05T15:06:39Z
2023-12-05T13:07:13Z,42.805,6.029,13.3042,4.60117,2470.857,2023-12-05T15:09:42Z
2023-12-05T13:10:16Z,42.805,6.029,13.3046,4.60117,2470.857,2023-12-05T15:12:45Z
2023-12-05T13:13:19Z,42.805,6.029,13.3045,4.60117,2470.857,2023-12-05T15:15:48Z
2023-12-05T13:16:22Z,42.805,6.029,13.3046,4.60117,2470.82,2023-12-05T15:18:51Z
2023-12-05T13:19:25Z,42.805,6.029,13.3044,4.60117,2470.796,2023-12-05T15:21:54Z
2023-12-05T13:22:28Z,42.805,6.029,13.3043,4.60117,2470.871,2023-12-05T15:24:57Z
2023-12-05T13:25:31Z,42.805,6.029,13.3043,4.60118,2470.847,2023-12-05T15:28:00Z
2023-12-05T13:28:34Z,42.805,6.029,13.3046,4.60122,2470.857,2023-12-05T15:31:03Z
2023-12-05T13:31:36Z,42.805,6.029,13.3043,4.60119,2470.833,2023-12-05T15:34:05Z
2023-12-05T13:34:39Z,42.805,6.029,13.3044,4.60119,2470.857,2023-12-05T15:37:08Z
2023-12-05T13:37:42Z,42.805,6.029,13.3040,4.60119,2470.871,2023-12-05T15:40:11Z
2023-12-05T13:40:45Z,42.805,6.029,13.3043,4.60120,2470.81,2023-12-05T15:43:14Z
2023-12-05T13:43:48Z,42.805,6.029,13.3044,4.60118,2470.88,2023-12-05T15:46:17Z
2023-12-05T13:46:51Z,42.805,6.029,13.3044,4.60119,2470.824,2023-12-05T15:49:20Z
2023-12-05T13:49:54Z,42.805,6.029,13.3046,4.60119,2470.871,2023-12-05T15:52:23Z
2023-12-05T13:52:58Z,42.805,6.029,13.3046,4.60119,2470.88,2023-12-05T15:55:26Z
2023-12-05T13:56:01Z,42.805,6.029,13.3043,4.60119,2470.82,2023-12-05T15:58:30Z
2023-12-05T13:59:04Z,42.805,6.029,13.3045,4.60119,2470.833,2023-12-05T16:01:33Z
2023-12-05T14:02:07Z,42.805,6.029,13.3048,4.60125,2470.81,2023-12-05T16:04:36Z
2023-12-05T14:05:10Z,42.805,6.029,13.3045,4.60127,2470.88,2023-12-05T16:07:39Z
2023-12-05T14:08:13Z,42.805,6.029,13.3046,4.60120,2470.847,2023-12-05T16:10:42Z
2023-12-05T14:11:16Z,42.805,6.029,13.3044,4.60119,2470.847,2023-12-05T16:13:45Z
2023-12-05T14:14:19Z,42.805,6.029,13.3045,4.60122,2470.857,2023-12-05T16:16:48Z
2023-12-05T14:17:22Z,42.805,6.029,13.3043,4.60125,2470.833,2023-12-05T16:19:51Z
2023-12-05T14:20:25Z,42.805,6.029,13.3044,4.60120,2470.833,2023-12-05T16:22:54Z
2023-12-05T14:23:28Z,42.805,6.029,13.3047,4.60121,2470.833,2023-12-05T16:25:57Z
2023-12-05T14:26:31Z,42.805,6.029,13.3044,4.60121,2470.871,2023-12-05T16:29:00Z
2023-12-05T14:29:34Z,42.805,6.029,13.3044,4.60122,2470.88,2023-12-05T16:32:03Z
2023-12-05T14:32:38Z,42.805,6.029,13.3045,4.60121,2470.857,2023-12-05T16:35:06Z
2023-12-05T14:35:41Z,42.805,6.029,13.3045,4.60122,2470.833,2023-12-05T16:38:10Z
2023-12-05T14:38:44Z,42.805,6.029,13.3043,4.60124,2470.857,2023-12-05T16:41:13Z
2023-12-05T14:41:47Z,42.805,6.029,13.3045,4.60126,2470.833,2023-12-05T16:44:16Z
2023-12-05T14:44:50Z,42.805,6.029,13.3042,4.60132,2470.857,2023-12-05T16:47:19Z
2023-12-05T14:47:53Z,42.805,6.029,13.3044,4.60121,2470.833,2023-12-05T16:50:22Z
2023-12-05T14:50:56Z,42.805,6.029,13.3046,4.60125,2470.847,2023-12-05T16:53:25Z
2023-12-05T14:53:59Z,42.805,6.029,13.3045,4.60124,2470.833,2023-12-05T16:56:28Z
2023-12-05T14:57:02Z,42.805,6.029,13.3045,4.60120,2470.857,2023-12-05T16:59:31Z
2023-12-05T15:00:05Z,42.805,6.029,13.3046,4.60122,2470.857,2023-12-05T17:02:34Z
2023-12-05T15:03:08Z,42.805,6.029,13.3047,4.60122,2470.81,2023-12-05T17:05:37Z